[[{"header":{"parameterUnit":"m.s-1","parameterCategory":1,"la1":30.2991,"la2":30.254,"lo1":-89.0895,"lo2":-89.0444,"dy":0.0017,"dx":0.0017,"nx":28,"ny":28,"refTime":"2024-12-03T03:00:00:Z","depth":0,"parameterNumber":2,"parameterNumberName":"U-component_of_WINDS"},"data":[0,0,0,0,0,0,0,0,0,0,0,0,0,0,0,0,0,0,0,0,0,0,0,0,0,0,0,0,0,0,0,0,0,0,0,0,0,0,0,0,0,0,0,0,0,0,0,0,0,0,0,0,0,0,0,0,0,0,-3.9464,-3.9464,0,-3.9515,-3.9515,-3.9516,-3.9424,-3.9421,-3.9418,-3.9415,-3.9468,-3.9472,-3.9476,0,0,0,0,0,0,0,0,0,0,0,0,0,-3.9287,-3.929,-3.9464,-3.9464,-3.9465,-3.9515,-3.9515,-3.9516,-3.9425,-3.9421,-3.9417,-3.9414,-3.9467,-3.9472,-3.9477,0,0,0,0,0,0,0,0,0,0,0,0,0,-3.9353,-3.9292,-3.9464,-3.9425,-3.9422,-3.9515,-3.9515,-3.9516,-3.9425,-3.9421,-3.9416,-3.9412,-3.9465,-3.9471,-3.9477,-3.961,0,0,-3.9497,-3.95,0,0,0,0,0,0,0,0,-3.935,-3.936,-3.943,-3.9428,-3.9425,-3.9458,-3.9472,-3.9548,-3.9427,-3.9424,-3.9415,-3.941,-3.9469,-3.9474,-3.9494,-3.9612,-3.9614,-3.9498,-3.9502,-3.9504,-3.9506,0,0,0,0,0,0,0,-3.9345,-3.9357,-3.9484,-3.9431,-3.9428,-3.9405,-3.941,-3.9486,-3.9472,-3.9424,-3.9418,-3.9425,-3.9466,-3.9488,-3.9495,-3.9615,-3.9497,-3.9503,-3.9507,-3.951,-3.9844,-3.9849,0,0,0,0,0,0,-3.9345,-3.9354,-3.9482,-3.9485,-3.9375,-3.9412,-3.9417,-3.9452,-3.9471,-3.9469,-3.9429,-3.942,-3.9479,-3.9487,-3.9496,-3.9653,-3.9504,-3.951,-3.9514,-3.9839,-3.9845,-3.9851,0,0,0,0,0,0,-3.9342,-3.9358,-3.948,-3.9418,-3.9432,-3.942,-3.946,-3.9456,-3.9478,-3.9474,-3.9471,-3.9454,-3.9476,-3.9487,-3.9582,-3.9653,-3.9513,-3.9519,-3.9833,-3.9841,-3.9848,-3.9967,0,0,0,0,0,0,-3.9337,-3.9357,-3.9407,-3.942,-3.9435,-3.9566,-3.9465,-3.946,-3.9489,-3.9478,-3.9497,-3.9496,-3.9473,-3.9573,-3.9589,-3.966,-3.9524,-3.9827,-3.9837,-3.9845,-3.9957,-3.9978,-3.9996,0,0,0,0,0,-3.9331,-3.9439,-3.941,-3.9426,-3.9498,-3.957,-3.9579,-3.9551,-3.9495,-3.9546,-3.9543,-3.9495,-3.9643,-3.9584,-3.96,-3.9674,-3.9822,-3.9834,-3.9845,-3.9948,-3.9974,-3.9995,0,0,0,0,0,0,-3.9435,-3.944,-3.9408,-3.9523,-3.9547,-3.9554,-3.9617,-3.9579,-3.962,-3.9608,-3.9572,-3.9577,-3.9679,-3.9686,-3.962,-3.9803,-3.9723,-3.9738,-3.9796,-3.982,-3.9839,-3.9836,-3.9529,0,0,0,0,0,-3.9472,-3.953,-3.953,-3.9632,-3.9645,-3.9629,-3.966,-3.9636,-3.9659,-3.9669,-3.9673,-3.9698,-3.975,-3.9785,-3.9832,-3.9956,-3.9959,-4.0015,-4.0035,-4.0051,-4.0065,-4.0132,-4.0157,-3.9888,-3.9888,-3.9887,0,0,-3.9547,-3.9557,-3.9596,-3.9653,-3.9668,-3.973,-3.9639,-3.9707,-3.9752,-3.9679,-3.977,-3.9774,-3.9798,-3.9909,-3.9958,-3.9918,-4.014,-4.0065,-4.0078,-4.0084,-4.0146,-4.0172,-4.0195,-3.9895,-3.9894,-3.9893,0,0,-3.9717,-3.973,-3.9816,-3.9833,-3.9858,-3.9847,-3.9867,-3.9881,-3.9881,-3.997,-3.9917,-3.997,-4.006,-4.008,-4.0102,-4.0278,-4.0236,-4.0294,-4.0397,-4.0462,-4.0484,-4.0502,-4.0567,-4.059,-4.0308,-4.0308,-4.0308,0,-3.9809,-3.9899,-3.9865,-3.9938,-3.9965,-3.99,-3.9988,-4.0006,-4.0045,-4.0065,-4.0019,-4.013,-4.0142,-4.0257,-4.03,-4.0319,-4.0343,-4.0293,-4.0483,-4.0502,-4.0519,-4.058,-4.0604,-4.0315,-4.0314,-4.0314,-4.0313,0,-4.0011,-4.0074,-4.014,-4.018,-4.0213,-4.0293,-4.0272,-4.031,-4.0283,-4.0276,-4.0368,-4.038,-4.0429,-4.0454,-4.0428,-4.0565,-4.054,-4.0489,-4.0408,-4.0552,-4.0609,-4.0632,-4.0325,-4.0323,-4.0321,-4.0319,0,0,-4.025,-4.0269,-4.0294,-4.0311,-4.0333,-4.0381,-4.0457,-4.0505,-4.0539,-4.0567,-4.0631,-4.0708,-4.0661,-4.0686,-4.0662,-4.0719,-4.0859,-4.0661,-4.0661,-4.0699,-4.1012,-4.1052,-4.1079,-4.083,-4.0834,-4.0838,-4.1011,0,-4.042,-4.0552,-4.0523,-4.0653,-4.0711,-4.065,-4.0717,-4.0737,-4.0733,-4.0782,-4.0776,-4.0832,-4.0765,-4.078,-4.0834,-4.0831,-4.0922,-4.0818,-4.089,-4.0893,-4.0888,-4.1109,-4.1151,-4.1313,-4.1032,-4.1036,-4.1039,0,-4.0637,-4.0673,-4.0809,-4.0822,-4.0845,-4.0905,-4.0947,-4.0993,-4.1015,-4.1008,-4.1036,-4.1,-4.1075,-4.0992,-4.1096,-4.1025,-4.1053,-4.1056,-4.1061,-4.1069,-4.0976,-4.1124,-4.1364,-4.139,-4.1073,-4.107,-4.1068,0,-4.08,-4.0883,-4.0975,-4.0991,-4.1008,-4.1052,-4.106,-4.1077,-4.1108,-4.1143,-4.1163,-4.1207,-4.1232,-4.1266,-4.1244,-4.1184,-4.1352,-4.1266,-4.1349,-4.135,-4.1389,-4.1387,-4.1639,-4.1403,-4.1403,-4.1402,-4.1402,0,-4.0994,-4.108,-4.1049,-4.1106,-4.12,-4.1166,-4.126,-4.1261,-4.1277,-4.1333,-4.1282,-4.1336,-4.1301,-4.1352,-4.1334,-4.1424,-4.1434,-4.1431,-4.1426,-4.1437,-4.1438,-4.1456,-4.1445,-4.1409,-4.1407,-4.1406,-4.1405,0,-4.1194,-4.1176,-4.1273,-4.128,-4.1283,-4.1353,-4.1359,-4.1412,-4.1402,-4.1474,-4.1489,-4.1475,-4.1532,-4.1512,-4.1573,-4.1561,-4.1675,-4.1654,-4.1669,-4.1664,-4.1748,-4.1742,-4.2023,-4.2059,-4.1798,-4.18,-4.1803,0,-4.132,-4.1385,-4.1399,-4.1433,-4.1445,-4.15,-4.1531,-4.1499,-4.1533,-4.1562,-4.1612,-4.1664,-4.1705,-4.1799,-4.1794,-4.1841,-4.1822,-4.1917,-4.1828,-4.1838,-4.1825,-4.1823,-4.1829,-4.1935,-4.1938,-4.1941,-4.1943,0,-4.1547,-4.1535,-4.1581,-4.1624,-4.1662,-4.1695,-4.1723,-4.1753,-4.1723,-4.1763,-4.1821,-4.1853,-4.1914,-4.1968,-4.2009,-4.2018,-4.1976,-4.197,-4.1992,-4.2006,-4.2012,-4.2011,-4.1719,-4.1965,-4.1963,-4.1961,-4.196,-4.1959,-4.1715,-4.177,-4.1788,-4.1841,-4.1859,-4.1886,-4.1936,-4.1933,-4.198,-4.2029,-4.2006,-4.2074,-4.2093,-4.2144,-4.2158,-4.221,-4.2173,-4.2205,-4.2213,-4.2222,-4.2234,-4.2002,-4.2217,-4.2217,-4.2216,-4.2216,-4.2215,0,-4.1941,-4.1949,-4.1998,-4.2039,-4.2081,-4.2036,-4.2064,-4.2103,-4.2162,-4.2184,-4.2224,-4.2291,-4.2342,-4.2341,-4.2388,-4.243,-4.2412,-4.2443,-4.2441,-4.2444,-4.2263,-4.224,-4.2457,-4.2457,-4.2457,-4.2457,-4.2457,-4.2457,-4.2064,-4.2154,-4.2144,-4.2243,-4.225,-4.2316,-4.2336,-4.236,-4.2377,-4.2454,-4.2496,-4.2494,-4.2507,-4.2554,-4.2599,-4.2597,-4.2618,-4.2657,-4.2649,-4.248,-4.2457,-4.2434,-4.2412,-4.2661,-4.2662,-4.2825,-4.2826,-4.2828]},{"header":{"parameterUnit":"m.s-1","parameterCategory":1,"la1":30.2991,"la2":30.254,"lo1":-89.0895,"lo2":-89.0444,"dy":0.0017,"dx":0.0017,"nx":28,"ny":28,"refTime":"2024-12-03T03:00:00:Z","depth":0,"parameterNumber":3,"parameterNumberName":"V-component_of_WINDS"},"data":[0,0,0,0,0,0,0,0,0,0,0,0,0,0,0,0,0,0,0,0,0,0,0,0,0,0,0,0,0,0,0,0,0,0,0,0,0,0,0,0,0,0,0,0,0,0,0,0,0,0,0,0,0,0,0,0,0,0,-5.5125,-5.5126,0,-5.5166,-5.5167,-5.5167,-5.51,-5.5098,-5.5096,-5.5094,-5.5133,-5.5136,-5.5139,0,0,0,0,0,0,0,0,0,0,0,0,0,-5.4985,-5.4988,-5.5125,-5.5126,-5.5126,-5.5166,-5.5167,-5.5167,-5.5101,-5.5098,-5.5095,-5.5093,-5.5132,-5.5135,-5.5139,0,0,0,0,0,0,0,0,0,0,0,0,0,-5.5038,-5.4989,-5.5125,-5.5098,-5.5096,-5.5166,-5.5167,-5.5168,-5.5101,-5.5098,-5.5095,-5.5091,-5.5131,-5.5135,-5.514,-5.5238,0,0,-5.5154,-5.5156,0,0,0,0,0,0,0,0,-5.5035,-5.5043,-5.5101,-5.51,-5.5098,-5.5125,-5.5132,-5.5191,-5.5102,-5.5099,-5.5094,-5.509,-5.5133,-5.5137,-5.5152,-5.5239,-5.5241,-5.5155,-5.5158,-5.516,-5.5161,0,0,0,0,0,0,0,-5.5031,-5.5041,-5.5141,-5.5102,-5.51,-5.5082,-5.5086,-5.5143,-5.5135,-5.5099,-5.5095,-5.5101,-5.5131,-5.5148,-5.5153,-5.5242,-5.5155,-5.5159,-5.5162,-5.5164,-5.541,-5.5413,0,0,0,0,0,0,-5.5031,-5.5038,-5.514,-5.5143,-5.5057,-5.5088,-5.5092,-5.512,-5.5134,-5.5133,-5.5103,-5.5097,-5.5141,-5.5147,-5.5154,-5.5269,-5.516,-5.5164,-5.5167,-5.5406,-5.5411,-5.5415,0,0,0,0,0,0,-5.5029,-5.5041,-5.5138,-5.5089,-5.51,-5.5094,-5.5125,-5.5122,-5.5139,-5.5137,-5.5135,-5.5122,-5.5139,-5.5147,-5.5217,-5.5269,-5.5166,-5.5171,-5.5402,-5.5408,-5.5413,-5.55,0,0,0,0,0,0,-5.5025,-5.5041,-5.5079,-5.5091,-5.5103,-5.5203,-5.5129,-5.5125,-5.5148,-5.514,-5.5154,-5.5153,-5.5137,-5.521,-5.5222,-5.5274,-5.5174,-5.5397,-5.5404,-5.5411,-5.5492,-5.5508,-5.5521,0,0,0,0,0,-5.502,-5.5101,-5.5081,-5.5094,-5.5151,-5.5206,-5.5213,-5.5193,-5.5152,-5.519,-5.5188,-5.5153,-5.5262,-5.5218,-5.5231,-5.5285,-5.5394,-5.5402,-5.541,-5.5486,-5.5505,-5.552,0,0,0,0,0,0,-5.5095,-5.5102,-5.508,-5.5168,-5.5187,-5.5195,-5.5241,-5.5214,-5.5244,-5.5236,-5.5209,-5.5213,-5.5288,-5.5293,-5.5245,-5.5379,-5.532,-5.5332,-5.5374,-5.5391,-5.5405,-5.5403,-5.5178,0,0,0,0,0,-5.5121,-5.5167,-5.517,-5.5247,-5.5258,-5.5248,-5.5271,-5.5255,-5.5273,-5.5281,-5.5284,-5.5302,-5.534,-5.5366,-5.5401,-5.5492,-5.5494,-5.5535,-5.555,-5.5561,-5.5571,-5.5619,-5.5637,-5.5442,-5.5442,-5.5442,0,0,-5.5177,-5.5187,-5.5217,-5.5262,-5.5275,-5.5321,-5.5255,-5.5307,-5.5341,-5.5288,-5.5355,-5.5358,-5.5376,-5.5457,-5.5493,-5.5464,-5.5626,-5.5572,-5.5581,-5.5585,-5.5629,-5.5648,-5.5664,-5.5448,-5.5446,-5.5446,0,0,-5.5302,-5.5314,-5.5379,-5.5393,-5.5414,-5.5407,-5.5423,-5.5434,-5.5435,-5.5502,-5.5463,-5.5501,-5.5568,-5.5582,-5.5598,-5.5728,-5.5696,-5.574,-5.5814,-5.5861,-5.5877,-5.589,-5.5936,-5.5953,-5.575,-5.575,-5.575,0,-5.5368,-5.5437,-5.5416,-5.547,-5.5491,-5.5446,-5.5511,-5.5525,-5.5556,-5.5571,-5.5537,-5.5619,-5.5628,-5.5712,-5.5743,-5.5758,-5.5774,-5.5738,-5.5876,-5.589,-5.5902,-5.5945,-5.5962,-5.5755,-5.5754,-5.5754,-5.5753,0,-5.5517,-5.5566,-5.5615,-5.5647,-5.5673,-5.5733,-5.5719,-5.5748,-5.5728,-5.5725,-5.5792,-5.5802,-5.5837,-5.5856,-5.5837,-5.5936,-5.5917,-5.5881,-5.5821,-5.5926,-5.5966,-5.5983,-5.5763,-5.5761,-5.5759,-5.5758,0,0,-5.5691,-5.571,-5.5728,-5.5742,-5.5761,-5.5797,-5.5854,-5.589,-5.5915,-5.5937,-5.5983,-5.604,-5.6006,-5.6024,-5.6006,-5.6048,-5.6149,-5.6006,-5.6006,-5.6032,-5.6258,-5.6286,-5.6305,-5.6128,-5.6131,-5.6133,-5.6256,0,-5.5815,-5.5914,-5.5896,-5.5992,-5.6036,-5.5993,-5.6042,-5.6059,-5.6056,-5.6092,-5.6088,-5.6129,-5.6081,-5.6092,-5.6131,-5.6129,-5.6194,-5.6119,-5.6169,-5.6172,-5.6167,-5.6326,-5.6356,-5.6472,-5.6272,-5.6275,-5.6276,0,-5.5973,-5.6002,-5.6103,-5.6115,-5.6132,-5.6177,-5.6208,-5.6243,-5.626,-5.6255,-5.6276,-5.625,-5.6305,-5.6244,-5.6319,-5.6269,-5.6288,-5.629,-5.6294,-5.6298,-5.6231,-5.6334,-5.6508,-5.6526,-5.6301,-5.6299,-5.6297,0,-5.609,-5.6154,-5.6222,-5.6235,-5.625,-5.6282,-5.629,-5.6303,-5.6326,-5.6352,-5.6366,-5.6399,-5.6417,-5.6441,-5.6425,-5.6382,-5.6502,-5.644,-5.6499,-5.6499,-5.6526,-5.6525,-5.6705,-5.6539,-5.6538,-5.6538,-5.6538,0,-5.623,-5.6294,-5.6275,-5.6317,-5.6386,-5.6364,-5.6432,-5.6434,-5.6447,-5.6487,-5.6452,-5.6491,-5.6466,-5.6503,-5.649,-5.6553,-5.6561,-5.6558,-5.6554,-5.6561,-5.6562,-5.6574,-5.6565,-5.6543,-5.6542,-5.6541,-5.654,0,-5.6372,-5.6362,-5.6434,-5.6442,-5.6446,-5.6496,-5.6503,-5.6541,-5.6536,-5.6588,-5.6598,-5.659,-5.663,-5.6616,-5.666,-5.6651,-5.6732,-5.6717,-5.6727,-5.6723,-5.6782,-5.6777,-5.6977,-5.7001,-5.6819,-5.6821,-5.6822,0,-5.6463,-5.651,-5.6524,-5.6549,-5.656,-5.6601,-5.6624,-5.6603,-5.6628,-5.665,-5.6686,-5.6724,-5.6753,-5.682,-5.6817,-5.685,-5.6835,-5.6903,-5.684,-5.6846,-5.6836,-5.6834,-5.6838,-5.6916,-5.6918,-5.692,-5.6921,0,-5.6624,-5.6617,-5.6652,-5.6685,-5.6714,-5.6739,-5.676,-5.6782,-5.6763,-5.6792,-5.6834,-5.6857,-5.6902,-5.6939,-5.6969,-5.6975,-5.6945,-5.6941,-5.6956,-5.6964,-5.6968,-5.6967,-5.6761,-5.6936,-5.6935,-5.6934,-5.6933,-5.6932,-5.6743,-5.6783,-5.6799,-5.6839,-5.6853,-5.6874,-5.691,-5.691,-5.6945,-5.698,-5.6965,-5.7013,-5.7027,-5.7064,-5.7074,-5.711,-5.7084,-5.7106,-5.7112,-5.7118,-5.7125,-5.6962,-5.7116,-5.7115,-5.7115,-5.7114,-5.7114,0,-5.6902,-5.691,-5.6947,-5.6979,-5.701,-5.698,-5.7002,-5.7029,-5.7073,-5.7089,-5.7119,-5.7166,-5.7202,-5.7202,-5.7235,-5.7264,-5.7251,-5.7274,-5.7271,-5.7273,-5.7147,-5.713,-5.7284,-5.7284,-5.7284,-5.7284,-5.7284,-5.7284,-5.6989,-5.7056,-5.705,-5.7123,-5.7129,-5.7177,-5.7192,-5.7211,-5.7224,-5.7279,-5.7309,-5.7309,-5.7318,-5.7351,-5.7383,-5.7381,-5.7395,-5.7423,-5.7417,-5.7299,-5.7282,-5.7266,-5.725,-5.7426,-5.7427,-5.754,-5.7541,-5.7542]}]]